Omaha Millard, NE

3:27 AM CST on November 19, 2017 (GMT -0600)
Millard Municipal

Weather History for KMLE - June, 2013

Change the Weather History Date:

Friday, June 14, 2013

  Actual Average (KOFF) Record (KOFF)
Temperature  
Mean Temperature 76 °F -  
Max Temperature 90 °F 79 °F 92 °F (2016)
Min Temperature 61 °F 60 °F 57 °F (1999)
Cooling Degree Days 10    
Growing Degree Days 26 (Base 50)    
Moisture  
Dew Point 65 °F    
Average Humidity 76    
Maximum Humidity 94    
Minimum Humidity 53    
Precipitation  
Precipitation 1.47 in - - ()
Sea Level Pressure  
Sea Level Pressure 29.91 in    
Wind  
Wind Speed 6 mph (SE)    
Max Wind Speed 21 mph    
Max Gust Speed 44 mph    
Visibility 10 miles    
Events Rain , Thunderstorm    
Averages and records for this station are not official NWS values.
T = Trace of Precipitation, MM = Missing Value Source: NWS Daily Summary

Daily Weather History Graph

Daily Weather History Graph

Search for Another Location

Airport or City:

Trip Planner

Search our weather history database for the weather conditions in past years. The results will help you decide how hot, cold, wet, or windy it might be!

Date:

Astronomy

Jun. 14, 2013 Rise Set
Actual Time 5:51 AM CDT 8:58 PM CDT
Civil Twilight 5:17 AM CDT 9:32 PM CDT
Nautical Twilight 4:34 AM CDT 10:15 PM CDT
Astronomical Twilight 3:42 AM CDT 11:07 PM CDT
Moon 11:30 AM CDT (6/14) 12:02 AM CDT (6/14)
Length of Visible Light 16h 15m
Length of Day
15h 07m
Waxing Crescent, 30% of the Moon is Illuminated
Jun 14
Waxing Crescent
Jun 16
First Quarter
Jun 23
Full
Jun 29
Last Quarter
Jul 8
New

Hourly Weather History & Observations

Time (CDT) Temp. Heat Index Dew Point Humidity Pressure Visibility Wind Dir Wind Speed Gust Speed Precip Events Conditions
12:15 AM 62.6 °F - 60.4 °F 93% 30.03 in 10.0 mi Calm Calm - N/A   Clear
12:35 AM 62.6 °F - 60.3 °F 92% 30.03 in 10.0 mi Calm Calm - N/A   Clear
12:55 AM 62.6 °F - 60.1 °F 91% 30.03 in 10.0 mi Calm Calm - N/A   Clear
1:15 AM 62.1 °F - 60.1 °F 93% 30.02 in 7.0 mi Calm Calm - N/A   Clear
1:35 AM 61.7 °F - 59.9 °F 94% 30.02 in 10.0 mi Calm Calm - N/A   Clear
1:55 AM 62.1 °F - 60.1 °F 93% 30.03 in 10.0 mi Calm Calm - N/A   Clear
2:15 AM 63.1 °F - 60.1 °F 90% 30.03 in 10.0 mi Calm Calm - N/A   Mostly Cloudy
2:35 AM 63.5 °F - 60.4 °F 90% 30.02 in 10.0 mi Calm Calm - N/A   Mostly Cloudy
2:55 AM 63.0 °F - 60.6 °F 92% 30.02 in 10.0 mi Calm Calm - N/A   Mostly Cloudy
3:15 AM 63.0 °F - 60.6 °F 92% 30.00 in 10.0 mi SSE 3.5 mph - N/A   Mostly Cloudy
3:35 AM 64.2 °F - 60.8 °F 89% 29.99 in 10.0 mi Calm Calm - N/A   Clear
3:55 AM 63.5 °F - 60.8 °F 91% 29.99 in 10.0 mi SE 3.5 mph - N/A   Scattered Clouds
4:15 AM 63.7 °F - 60.8 °F 90% 29.98 in 10.0 mi Calm Calm - N/A   Scattered Clouds
4:35 AM 63.9 °F - 60.6 °F 89% 29.96 in 10.0 mi Calm Calm - N/A   Scattered Clouds
4:55 AM 64.0 °F - 60.4 °F 88% 29.98 in 10.0 mi ESE 4.6 mph - N/A   Scattered Clouds
5:15 AM 64.8 °F - 60.8 °F 87% 29.98 in 10.0 mi SE 3.5 mph - N/A   Scattered Clouds
5:35 AM 65.3 °F - 59.9 °F 83% 29.96 in 10.0 mi SSE 5.8 mph - N/A   Scattered Clouds
5:55 AM 65.3 °F - 59.9 °F 83% 29.96 in 10.0 mi SE 5.8 mph - N/A   Scattered Clouds
6:15 AM 66.2 °F - 59.4 °F 79% 29.98 in 10.0 mi SE 3.5 mph - N/A   Mostly Cloudy
6:35 AM 66.2 °F - 59.5 °F 79% 29.97 in 10.0 mi SE 5.8 mph - N/A   Mostly Cloudy
6:55 AM 66.9 °F - 59.9 °F 78% 29.95 in 10.0 mi ESE 6.9 mph - N/A   Mostly Cloudy
7:15 AM 68.0 °F - 59.9 °F 75% 29.96 in 10.0 mi SE 5.8 mph - N/A   Mostly Cloudy
7:35 AM 68.0 °F - 60.8 °F 78% 29.98 in 10.0 mi SE 6.9 mph - N/A   Overcast
7:55 AM 68.9 °F - 61.3 °F 77% 29.96 in 10.0 mi SE 9.2 mph - N/A   Overcast
8:15 AM 69.8 °F - 61.3 °F 74% 29.95 in 10.0 mi SE 6.9 mph - N/A   Overcast
8:35 AM 70.2 °F - 61.5 °F 74% 29.96 in 10.0 mi ESE 8.1 mph - N/A   Mostly Cloudy
8:55 AM 70.2 °F - 61.7 °F 74% 29.95 in 10.0 mi ESE 8.1 mph - N/A Thunderstorm Scattered Clouds
9:15 AM 70.7 °F - 62.2 °F 75% 29.94 in 10.0 mi ESE 10.4 mph - N/A   Scattered Clouds
9:35 AM 71.1 °F - 62.6 °F 75% 29.95 in 10.0 mi ESE 9.2 mph - N/A   Scattered Clouds
9:55 AM 70.7 °F - 63.5 °F 78% 29.91 in 10.0 mi SE 10.4 mph 20.7 mph N/A   Light Drizzle
10:15 AM 71.6 °F - 64.0 °F 77% 29.90 in 10.0 mi SE 18.4 mph 21.9 mph N/A   Clear
10:35 AM 72.5 °F - 64.4 °F 76% 29.88 in 10.0 mi ESE 15.0 mph 25.3 mph N/A   Clear
10:55 AM 73.4 °F - 64.8 °F 74% 29.86 in 10.0 mi ESE 17.3 mph 24.2 mph N/A   Clear
11:15 AM 74.5 °F - 65.5 °F 73% 29.89 in 10.0 mi ESE 16.1 mph 23.0 mph N/A   Clear
11:35 AM 75.6 °F - 66.0 °F 72% 29.91 in 10.0 mi ESE 11.5 mph 17.3 mph N/A   Clear
11:55 AM 75.4 °F - 66.0 °F 73% 29.91 in 10.0 mi ESE 11.5 mph - N/A   Scattered Clouds
12:15 PM 77.4 °F - 66.9 °F 70% 29.91 in 10.0 mi SE 13.8 mph - N/A   Scattered Clouds
12:35 PM 77.0 °F - 66.9 °F 71% 29.91 in 10.0 mi SE 13.8 mph 18.4 mph N/A   Scattered Clouds
12:55 PM 77.2 °F - 67.5 °F 72% 29.90 in 10.0 mi SE 13.8 mph 18.4 mph N/A   Scattered Clouds
1:15 PM 77.9 °F - 67.5 °F 70% 29.89 in 10.0 mi ESE 15.0 mph 20.7 mph N/A   Scattered Clouds
1:35 PM 78.8 °F - 68.0 °F 69% 29.88 in 10.0 mi ESE 13.8 mph 20.7 mph N/A   Clear
1:55 PM 80.6 °F 83.5 °F 68.7 °F 67% 29.87 in 10.0 mi SE 18.4 mph 23.0 mph N/A   Clear
2:15 PM 81.1 °F 84.4 °F 69.1 °F 67% 29.86 in 10.0 mi SE 19.6 mph 24.2 mph N/A Thunderstorm Clear
2:35 PM 82.0 °F 85.7 °F 69.6 °F 66% 29.86 in 10.0 mi SE 15.0 mph 21.9 mph N/A   Clear
2:55 PM 82.4 °F 86.1 °F 69.6 °F 65% 29.86 in 10.0 mi ESE 11.5 mph 19.6 mph N/A   Clear
3:15 PM 83.1 °F 87.1 °F 69.6 °F 64% 29.85 in 10.0 mi SE 13.8 mph 19.6 mph N/A   Clear
3:35 PM 82.9 °F 86.5 °F 69.1 °F 63% 29.85 in 10.0 mi ESE 15.0 mph - N/A   Clear
3:55 PM 83.3 °F 87.1 °F 69.6 °F 63% 29.84 in 10.0 mi SE 13.8 mph 19.6 mph N/A   Clear
4:15 PM 85.1 °F 89.8 °F 70.2 °F 61% 29.82 in 10.0 mi ESE 10.4 mph - N/A   Clear
4:35 PM 87.6 °F 93.5 °F 71.1 °F 58% 29.82 in 10.0 mi SE 11.5 mph 21.9 mph N/A   Clear
4:55 PM 89.8 °F 95.6 °F 70.3 °F 53% 29.81 in 10.0 mi SSE 18.4 mph 26.5 mph N/A   Clear
5:15 PM 90.1 °F 96.8 °F 71.2 °F 54% 29.81 in 10.0 mi SSE 12.7 mph 21.9 mph N/A   Scattered Clouds
5:35 PM 89.6 °F 95.7 °F 70.9 °F 54% 29.81 in 10.0 mi SE 17.3 mph 23.0 mph N/A   Clear
5:55 PM 89.4 °F 95.8 °F 71.1 °F 55% 29.79 in 10.0 mi SSE 19.6 mph 26.5 mph N/A   Clear
6:15 PM 87.4 °F 92.3 °F 69.8 °F 56% 29.79 in 10.0 mi SE 18.4 mph 25.3 mph N/A   Clear
6:35 PM 86.9 °F 91.7 °F 70.2 °F 57% 29.79 in 10.0 mi SE 13.8 mph - N/A   Clear
6:55 PM 85.5 °F 89.1 °F 68.9 °F 57% 29.78 in 10.0 mi SE 20.7 mph 25.3 mph N/A   Clear
7:15 PM 84.6 °F 88.2 °F 68.9 °F 59% 29.77 in 10.0 mi ESE 17.3 mph 24.2 mph N/A   Clear
7:35 PM 84.2 °F 87.6 °F 68.4 °F 59% 29.79 in 10.0 mi ESE 15.0 mph 23.0 mph N/A   Clear
7:55 PM 83.3 °F 86.2 °F 67.8 °F 59% 29.81 in 10.0 mi ESE 11.5 mph 17.3 mph N/A Thunderstorm Scattered Clouds
8:15 PM 82.4 °F 85.0 °F 67.5 °F 60% 29.79 in 10.0 mi ESE 15.0 mph 21.9 mph N/A Thunderstorm Thunderstorm
8:35 PM 82.4 °F 85.0 °F 67.5 °F 60% 29.84 in 10.0 mi SE 15.0 mph 23.0 mph N/A Thunderstorm Thunderstorm
8:55 PM 69.8 °F - 66.2 °F 88% 29.92 in 1.8 mi West 13.8 mph 43.7 mph 0.36 in Rain , Thunderstorm Heavy Thunderstorms and Rain
9:15 PM 68.9 °F - 66.7 °F 93% 29.96 in 1.5 mi West 20.7 mph 26.5 mph 0.65 in Rain , Thunderstorm Heavy Thunderstorms and Rain
9:35 PM 69.6 °F - 65.5 °F 87% 29.94 in 4.0 mi NNW 3.5 mph - 1.03 in Rain , Thunderstorm Heavy Thunderstorms and Rain
9:55 PM 69.4 °F - 67.1 °F 92% 29.91 in 7.0 mi East 3.5 mph - 1.10 in Rain , Thunderstorm Light Thunderstorms and Rain
10:15 PM 69.4 °F - 66.6 °F 91% 29.90 in 10.0 mi NE 4.6 mph - 0.01 in Rain Light Rain
10:35 PM 69.3 °F - 66.4 °F 91% 29.89 in 10.0 mi ESE 4.6 mph - 0.01 in Thunderstorm Thunderstorm
10:55 PM 68.9 °F - 66.6 °F 92% 29.90 in 10.0 mi Calm Calm - 0.01 in   Clear
11:15 PM 68.4 °F - 66.6 °F 94% 29.87 in 10.0 mi SE 11.5 mph - N/A Thunderstorm Clear
11:35 PM 68.2 °F - 66.0 °F 93% 29.85 in 10.0 mi SSE 12.7 mph 18.4 mph N/A   Clear
11:55 PM 68.5 °F - 65.8 °F 91% 29.86 in 10.0 mi SE 11.5 mph - N/A   Clear